Boston, MA

1:03 AM EDT on July 22, 2017 (GMT -0400)
Logan International

Weather History for KBOS - November, 2013

Change the Weather History Date:

Friday, November 29, 2013

  Actual Average Record
Temperature  
Mean Temperature 29 °F 41 °F  
Max Temperature 35 °F 47 °F 69 °F (1990)
Min Temperature 23 °F 34 °F 8 °F (1875)
Degree Days  
Heating Degree Days 36 25  
Month to date heating degree days 627 585  
Since 1 July heating degree days 979 1032  
Cooling Degree Days 0 0  
Month to date cooling degree days 1 0  
Year to date cooling degree days 920 747  
Moisture  
Dew Point 8 °F    
Average Humidity 42    
Maximum Humidity 55    
Minimum Humidity 28    
Precipitation  
Precipitation 0.00 in 0.14 in 2.34 in (1963)
Month to date precipitation 2.72 3.85  
Year to date precipitation 35.74 39.85  
Sea Level Pressure  
Sea Level Pressure 30.58 in    
Wind  
Wind Speed 10 mph (NW)    
Max Wind Speed 17 mph    
Max Gust Speed 21 mph    
Visibility 10 miles    
Events      
T = Trace of Precipitation, MM = Missing Value Source: NWS Daily Summary

Daily Weather History Graph

Daily Weather History Graph

Search for Another Location

Airport or City:

Trip Planner

Search our weather history database for the weather conditions in past years. The results will help you decide how hot, cold, wet, or windy it might be!

Date:

Astronomy

Nov. 29, 2013 Rise Set
Actual Time 6:51 AM EST 4:12 PM EST
Civil Twilight 6:20 AM EST 4:44 PM EST
Nautical Twilight 5:45 AM EST 5:19 PM EST
Astronomical Twilight 5:11 AM EST 5:52 PM EST
Moon 2:49 AM EST (11/29) 1:59 PM EST (11/29)
Length of Visible Light 10h 23m
Length of Day
9h 21m
Waning Crescent, 14% of the Moon is Illuminated
Nov 29
Waning Crescent
Dec 2
New
Dec 9
First Quarter
Dec 17
Full
Dec 25
Last Quarter

Hourly Weather History & Observations

Time (EST) Temp. Windchill Dew Point Humidity Pressure Visibility Wind Dir Wind Speed Gust Speed Precip Events Conditions
12:54 AM 27.0 °F 16.7 °F 9.0 °F 47% 30.45 in 10.0 mi West 11.5 mph - N/A   Mostly Cloudy
1:54 AM 27.0 °F 15.2 °F 10.0 °F 49% 30.47 in 10.0 mi West 15.0 mph - N/A   Overcast
2:54 AM 27.0 °F 18.0 °F 10.9 °F 51% 30.47 in 10.0 mi West 9.2 mph - N/A   Overcast
3:54 AM 27.0 °F 18.0 °F 10.9 °F 51% 30.47 in 10.0 mi WNW 9.2 mph - N/A   Overcast
4:54 AM 27.0 °F 18.0 °F 12.0 °F 53% 30.49 in 10.0 mi West 9.2 mph - N/A   Overcast
5:54 AM 27.0 °F 17.3 °F 12.0 °F 53% 30.51 in 10.0 mi West 10.4 mph - N/A   Overcast
6:54 AM 27.0 °F 18.7 °F 12.0 °F 53% 30.53 in 10.0 mi WNW 8.1 mph - N/A   Scattered Clouds
7:54 AM 28.0 °F 18.6 °F 12.9 °F 53% 30.55 in 10.0 mi NW 10.4 mph - N/A   Partly Cloudy
8:54 AM 27.0 °F 17.3 °F 12.9 °F 56% 30.57 in 10.0 mi NNW 10.4 mph - N/A   Partly Cloudy
9:54 AM 28.9 °F 21.1 °F 12.0 °F 49% 30.58 in 10.0 mi NW 8.1 mph - N/A   Partly Cloudy
10:54 AM 30.9 °F 24.3 °F 12.0 °F 46% 30.57 in 10.0 mi NW 6.9 mph - N/A   Partly Cloudy
11:54 AM 32.0 °F 24.8 °F 10.9 °F 42% 30.56 in 10.0 mi NNW 8.1 mph - N/A   Partly Cloudy
12:54 PM 33.1 °F 26.9 °F 9.0 °F 37% 30.56 in 10.0 mi Variable 6.9 mph - N/A   Clear
1:54 PM 34.0 °F 25.5 °F 7.0 °F 32% 30.56 in 10.0 mi NW 11.5 mph 16.1 mph N/A   Partly Cloudy
2:54 PM 33.1 °F 23.9 °F 6.1 °F 32% 30.57 in 10.0 mi NW 12.7 mph 16.1 mph N/A   Partly Cloudy
3:54 PM 32.0 °F 23.0 °F 3.9 °F 31% 30.59 in 10.0 mi NW 11.5 mph - N/A   Partly Cloudy
4:54 PM 30.9 °F 22.8 °F 3.0 °F 31% 30.62 in 10.0 mi NNW 9.2 mph - N/A   Partly Cloudy
5:54 PM 30.0 °F 21.1 °F 1.9 °F 30% 30.65 in 10.0 mi North 10.4 mph - N/A   Partly Cloudy
6:54 PM 28.0 °F 19.3 °F 1.0 °F 31% 30.69 in 10.0 mi NNW 9.2 mph - N/A   Partly Cloudy
7:54 PM 27.0 °F 17.3 °F 1.9 °F 34% 30.70 in 10.0 mi NNW 10.4 mph - N/A   Partly Cloudy
8:54 PM 26.1 °F 17.6 °F 3.9 °F 39% 30.71 in 10.0 mi North 8.1 mph - N/A   Clear
9:54 PM 25.0 °F 13.6 °F 3.9 °F 41% 30.72 in 10.0 mi NNW 12.7 mph - N/A   Clear
10:54 PM 24.1 °F 15.2 °F 5.0 °F 44% 30.74 in 10.0 mi North 8.1 mph - N/A   Clear
11:54 PM 23.0 °F 13.9 °F 6.1 °F 48% 30.75 in 10.0 mi NNW 8.1 mph - N/A   Clear